EW9439 Weather Reports


time (UTC)temp
F
wind
direction
speed
knots
gust
knots
rain 1hr
in
rain 24hr
in
rain mn
in
humidity
%
barometer
mb
20260507193024 64 225 0.0 0.0 0.00 2.85 1.17 88 1008.7
20260507191524 64 221 0.0 0.0 0.00 2.85 1.17 89 1008.7
20260507190036 63 165 0.0 0.0 0.00 2.85 1.17 90 1008.8
20260507184548 62 165 0.0 0.0 0.00 2.85 1.17 92 1009.1
20260507183052 62 96 0.0 0.0 0.00 2.85 1.17 91 1009.2
20260507181556 63 5 0.0 0.0 0.00 2.85 1.17 93 1009.0
20260507180056 63 5 0.0 0.0 0.00 2.85 1.17 95 1008.8
20260507174600 63 5 0.0 0.0 0.00 2.85 1.17 95 1009.1
20260507174502 63 5 0.0 0.0 0.00 2.85 1.17 94 1009.1
20260507173100 63 5 0.0 0.0 0.00 2.85 1.17 95 1009.0
20260507173003 63 5 0.0 0.0 0.00 2.85 1.17 95 1009.0
20260507171506 64 5 0.0 0.0 0.00 2.85 1.17 96 1008.8
20260507170030 64 5 0.0 0.0 0.00 2.85 1.17 97 1008.6
20260507164532 64 9 0.0 0.0 0.00 2.85 1.17 97 1008.5
20260507163034 65 86 0.0 0.0 0.00 2.85 1.17 98 1008.5
20260507161534 64 64 0.0 0.0 0.00 2.85 1.17 98 1008.6
20260507160037 64 115 0.0 0.0 0.00 2.85 1.17 98 1008.5
20260507154538 64 115 0.0 0.0 0.00 2.85 1.17 98 1008.2
20260507153102 64 115 0.0 0.0 0.01 2.85 1.17 98 1007.9
20260507153002 64 115 0.0 0.0 0.01 2.85 1.17 98 1007.9
20260507151520 64 115 0.0 0.0 0.01 2.85 1.17 98 1007.9
20260507150022 64 115 0.0 0.0 0.01 2.85 1.17 99 1007.8
20260507144525 64 115 0.0 0.0 0.01 2.85 1.17 99 1007.9
20260507143044 63 115 0.0 0.0 0.02 2.84 1.15 98 1008.0
20260507141541 63 113 0.0 0.0 0.07 2.84 1.15 98 1007.8
20260507140100 63 113 0.0 0.0 0.07 2.84 1.15 98 1007.9
20260507134548 63 113 0.0 0.0 0.08 2.84 1.15 98 1008.0
20260507133055 63 113 0.0 0.0 0.06 2.82 1.13 98 1008.1
20260507131520 63 113 0.0 0.0 0.09 2.77 1.09 98 1007.6
20260507130019 63 113 0.0 0.0 0.11 2.77 1.09 98 1007.2
20260507124519 63 113 0.0 0.0 0.11 2.76 1.08 98 1006.8
20260507123030 62 114 0.0 0.0 0.14 2.76 1.08 98 1007.0
20260507121543 62 114 0.0 0.0 0.10 2.68 1.00 98 1008.2
20260507120043 62 355 0.0 0.0 0.14 2.66 0.98 98 1007.2
20260507114534 62 350 0.0 0.0 0.13 2.65 0.97 98 1006.8
20260507113058 62 141 0.0 0.0 0.12 2.62 0.94 98 1006.2
20260507111554 63 142 0.0 0.0 0.10 2.58 0.90 98 1006.1
20260507110056 63 174 0.0 0.0 0.05 2.52 0.85 98 1006.0
20260507104503 63 174 0.0 0.0 0.12 2.52 0.84 98 1005.2
20260507103008 63 174 0.0 0.0 0.11 2.50 0.82 98 1005.5
20260507101509 63 174 0.0 0.0 0.09 2.48 0.80 98 1005.5
20260507100013 63 174 0.0 0.0 0.08 2.47 0.79 98 1005.7
20260507094506 63 174 0.0 0.0 0.01 2.39 0.72 98 1006.1
20260507093031 63 174 0.0 0.0 0.01 2.39 0.71 98 1006.0
20260507091550 63 174 0.0 0.0 0.01 2.39 0.71 98 1006.2
20260507090033 63 174 0.0 0.0 0.01 2.39 0.71 98 1006.0
20260507084536 63 174 0.0 0.0 0.00 2.38 0.70 98 1006.5
20260507083040 63 174 0.0 0.0 0.00 2.38 0.70 98 1006.8
20260507081552 63 174 0.0 0.0 0.00 2.38 0.70 98 1006.9
20260507080049 63 174 0.0 0.0 0.00 2.38 0.70 98 1006.8
20260507074519 63 173 0.0 0.0 0.00 2.38 0.70 98 1006.8
20260507073026 63 173 0.0 0.0 0.00 2.38 0.70 98 1007.4
20260507071510 63 173 0.0 0.0 0.01 2.38 0.70 98 1007.7
20260507070015 63 174 0.0 0.0 0.04 2.38 0.70 98 1007.5
20260507064519 63 173 0.0 0.0 0.05 2.38 0.70 98 1007.5
20260507063018 63 181 0.0 0.0 0.08 2.38 0.70 98 1006.9
20260507061529 63 181 0.0 0.0 0.09 2.37 0.70 98 1008.0
20260507060030 63 181 0.0 0.0 0.09 2.34 0.66 98 1008.3
20260507054524 63 181 0.0 0.0 0.27 2.33 0.65 97 1008.4
20260507053025 63 181 0.0 0.0 0.45 2.29 0.62 97 1008.8
20260507051525 63 181 0.0 0.0 0.56 2.27 0.60 97 1008.9
20260507050032 63 181 0.0 0.0 0.61 2.25 0.56 97 1009.0
20260507044541 63 181 0.0 0.0 0.43 2.04 0.39 97 1009.8
20260507043046 63 181 0.0 0.0 0.31 1.84 0.17 96 1009.3
20260507041546 63 181 0.0 0.0 0.27 1.71 0.04 96 1008.7
20260507040052 63 181 0.0 0.0 0.34 1.64 1.65 96 1009.1
20260507034547 63 181 0.0 0.0 0.52 1.62 1.62 96 1009.3
20260507033049 63 58 0.0 0.0 0.61 1.53 1.54 96 1009.6
20260507031549 63 50 0.0 0.0 0.79 1.44 1.45 96 1009.4
20260507030057 63 50 0.0 0.0 0.65 1.30 1.30 95 1009.7
20260507024549 64 350 0.0 0.0 0.52 1.09 1.11 95 1009.9
20260507023052 64 336 0.0 4.3 0.43 0.92 0.93 94 1008.9
20260507021615 65 360 0.0 0.0 0.18 0.65 0.65 94 1009.1
20260507020020 67 11 0.0 0.0 0.19 0.65 0.65 94 1008.7
20260507014526 69 350 0.0 1.7 0.14 0.56 0.56 96 1008.5
20260507013028 69 155 0.0 0.0 0.06 0.48 0.49 96 1009.1
20260507011531 70 155 0.0 0.0 0.05 0.47 0.47 95 1008.7
20260507010029 70 155 0.0 0.0 0.04 0.46 0.46 95 1008.5
20260507004531 70 155 0.0 0.0 0.02 0.43 0.43 95 1008.3
20260507003029 70 155 0.0 0.0 0.02 0.42 0.42 95 1008.3
20260507001535 70 155 0.0 0.0 0.06 0.42 0.42 94 1008.4
20260507000034 70 171 0.0 0.0 0.21 0.42 0.42 94 1008.4
20260506234537 70 171 0.0 0.0 0.41 0.41 0.41 93 1008.5
20260506233039 70 171 0.0 0.0 0.40 0.40 0.40 92 1008.6
20260506231540 71 171 0.0 0.0 0.36 0.36 0.36 90 1008.6
20260506230043 74 171 0.0 0.0 0.18 0.18 0.22 84 1007.9
20260506224544 75 152 0.0 0.0 0.00 0.00 0.00 77 1007.2
20260506223056 76 152 0.0 0.0 0.00 0.00 0.00 77 1007.9
20260506223002 76 152 0.0 0.0 0.00 0.00 0.00 77 1007.9
20260506221559 76 152 0.0 0.0 0.00 0.00 0.00 77 1008.2
20260506221505 76 152 0.0 0.0 0.00 0.00 0.00 77 1008.2
20260506220011 76 152 0.0 0.0 0.00 0.00 0.00 76 1007.9
20260506214549 76 152 0.0 0.0 0.00 0.00 0.00 76 1007.9
20260506213015 77 152 0.0 0.0 0.00 0.00 0.00 74 1007.8
20260506211512 77 30 0.0 0.0 0.00 0.00 0.00 73 1007.7
20260506210012 76 5 0.0 0.0 0.00 0.00 0.00 73 1008.0
20260506204514 76 5 0.0 0.0 0.00 0.00 0.00 73 1008.1
20260506203014 77 340 0.0 0.0 0.00 0.00 0.00 72 1008.5
20260506201523 77 53 0.0 0.9 0.00 0.00 0.00 71 1008.6
20260506200025 77 103 0.0 0.0 0.00 0.00 0.00 71 1008.8
20260506194520 77 111 0.0 0.0 0.00 0.00 0.00 72 1008.9